This is the latest recevied weather packets stored in our database for station/object 9W8AKN-L. If no packets are shown the sender has not sent any weather packets the latest 10 day(s).
| Time | Temp. | Humidity | Pressure | Rain* | Wind** | Luminosity | Snow |
|---|---|---|---|---|---|---|---|
| 1777789942 | 30.56° C | 73% | 1007 hPa | - | - | - | - |
| 1777789042 | 30.56° C | 72% | 1007.4 hPa | - | - | - | - |
| 1777788142 | 30.56° C | 68% | 1007.7 hPa | - | - | - | - |
| 1777787242 | 30° C | 67% | 1007.9 hPa | - | - | - | - |
| 1777786342 | 29.44° C | 65% | 1008.2 hPa | - | - | - | - |
| 1777785441 | 29.44° C | 69% | 1008.6 hPa | - | - | - | - |
| 1777784553 | 30° C | 70% | 1009 hPa | - | - | - | - |
| 1777784541 | 30° C | 70% | 1009 hPa | - | - | - | - |
| 1777783641 | 30° C | 70% | 1009.2 hPa | - | - | - | - |
| 1777782741 | 29.44° C | 67% | 1009.5 hPa | - | - | - | - |
| 1777781841 | 28.89° C | 64% | 1009.8 hPa | - | - | - | - |
| 1777780941 | 28.89° C | 60% | 1010 hPa | - | - | - | - |
| 1777780041 | 28.89° C | 61% | 1010.1 hPa | - | - | - | - |
| 1777779141 | 28.89° C | 61% | 1010.2 hPa | - | - | - | - |
| 1777778241 | 28.89° C | 63% | 1010.4 hPa | - | - | - | - |
| 1777777340 | 28.89° C | 64% | 1010.6 hPa | - | - | - | - |
| 1777776439 | 28.89° C | 67% | 1010.6 hPa | - | - | - | - |
| 1777774642 | 28.33° C | 72% | 1010.8 hPa | - | - | - | - |
| 1777773741 | 28.33° C | 74% | 1010.8 hPa | - | - | - | - |
| 1777772841 | 28.33° C | 77% | 1011 hPa | - | - | - | - |
| 1777771941 | 28.33° C | 85% | 1011.1 hPa | - | - | - | - |
| 1777771041 | 28.33° C | 86% | 1011 hPa | - | - | - | - |
| 1777770141 | 27.78° C | 89% | 1011 hPa | - | - | - | - |
| 1777769241 | 27.78° C | 89% | 1010.8 hPa | - | - | - | - |
| 1777768341 | 27.78° C | 90% | 1010.7 hPa | - | - | - | - |
* Rain since midnight (hover to see other rain measurements)
** Current wind speed in m/s (hover to see current wind gust speed)